Torna al catalogo

STARLINK-5571

AttivoComunicazioniVLEO
NORAD 55380·PAYLOAD·🇺🇸 United States

Lanciato Jan 26, 2023 da Cape Canaveral Space Force Station

Loading…

Prossimi Passaggi (prossime 24 ore)

TLE

AggiornatoSource: CelesTrak SupGP

Epoca: Sep 15, 2026, 01:37 UTC

1 55380C 23013BB  26258.06784722  .00029167  00000+0  10566-2 0  2581
2 55380  42.9999 317.9908 0001401 263.6853 160.7260 15.27558814    10

Traccia STARLINK-5571 in tempo reale con AllMySat

Download on the App Store